Wind_Speed
32 34 34 32 31 30 30 30 30 29 27 28 27 26 25 25 26 28 30 32 33 33 33 34 34 34 34 33 31 30 29 28 27 26 25 24 23 22 21 20 19 17 17 19 20 20 19 17 16 15 16 18 18 18 18 18 16 14 13 11 10 8 6
29 30 33 34 34 31 30 30 31 31 29 28 28 28 27 27 26 27 27 28 29 30 31 33 34 35 35 34 34 32 31 30 29 28 27 27 25 23 22 21 20 18 17 19 21 21 21 20 18 18 18 20 20 20 20 19 17 15 14 12 10 9 7
26 25 27 30 32 32 30 30 31 31 30 30 30 29 29 27 26 26 26 25 25 25 27 29 31 32 33 34 35 34 33 32 31 30 29 28 26 25 23 22 20 19 18 19 21 23 22 21 20 20 21 21 21 22 21 20 19 17 15 13 11 10 9
24 22 21 23 27 30 31 31 31 31 31 30 30 29 28 27 25 25 25 25 24 23 23 22 24 26 29 31 33 34 34 33 32 31 30 29 27 27 25 24 21 20 20 20 21 23 24 23 23 22 23 23 23 23 22 21 19 18 16 14 13 12 11
21 20 20 23 26 29 31 32 32 32 31 31 30 29 28 27 26 26 25 24 24 23 22 19 19 21 23 26 29 31 32 32 32 32 31 30 29 29 28 25 22 21 20 21 22 24 25 25 25 24 25 25 24 24 22 21 20 18 17 16 14 14 13
21 21 22 24 24 26 28 29 30 31 31 31 30 29 29 28 28 27 25 24 23 23 23 22 21 21 20 22 24 26 29 31 32 32 32 31 31 31 30 27 24 22 21 22 23 25 26 27 26 26 26 26 26 25 23 21 20 19 18 17 15 14 14
22 21 23 23 23 24 25 27 29 29 30 31 30 30 30 30 30 28 26 25 24 23 23 24 24 23 22 22 22 23 25 28 30 32 32 33 32 32 31 29 26 24 23 23 25 26 27 28 27 27 27 27 27 25 23 22 21 20 19 18 16 15 14
26 24 24 23 21 21 22 25 27 27 27 30 32 32 32 32 31 29 28 27 25 24 23 24 24 24 24 23 23 23 23 24 25 27 29 31 32 32 31 30 27 25 25 25 26 27 28 28 28 28 28 28 27 26 24 23 22 21 20 18 16 15 15
27 27 26 23 20 21 23 23 24 26 26 28 32 33 32 33 32 30 29 27 26 25 24 24 24 24 24 24 23 23 22 23 24 25 26 28 29 30 30 29 28 26 26 26 27 28 29 29 29 29 29 29 28 26 25 24 23 22 21 19 17 16 15
23 24 26 26 24 24 25 25 24 26 27 27 30 32 32 32 32 31 29 28 28 26 24 25 24 25 26 25 24 23 23 24 24 24 25 26 28 29 29 29 29 27 27 27 28 29 29 30 30 30 30 30 29 27 26 24 23 23 21 19 17 16 16
21 21 22 25 26 25 27 28 24 25 27 27 30 32 31 31 31 31 30 29 28 26 25 25 25 26 27 26 25 25 24 26 25 25 25 26 27 28 28 29 29 28 28 28 29 30 30 31 32 32 31 30 29 28 26 25 24 23 21 19 18 17 16
23 22 20 20 22 23 26 27 24 24 27 28 30 31 29 29 30 30 30 29 28 27 25 25 25 27 28 27 27 27 27 27 27 26 26 25 26 27 28 29 29 28 29 30 30 31 31 32 33 33 32 31 29 28 27 26 25 23 22 20 19 18 18
25 25 22 20 21 22 22 24 23 24 27 28 29 30 29 29 29 29 29 29 29 28 26 25 25 26 27 28 29 29 29 30 29 28 27 25 25 26 27 29 29 29 30 31 32 32 32 33 33 34 33 31 31 30 28 27 26 25 23 21 20 19 19
24 26 25 22 22 22 22 22 22 23 27 28 27 28 29 29 30 30 30 29 29 28 26 26 26 27 28 28 30 31 31 31 31 30 28 26 25 25 26 28 29 30 31 32 33 34 34 34 34 34 34 33 32 31 31 30 28 26 24 22 21 21 21
23 26 27 25 23 24 23 21 22 23 26 28 27 27 28 28 29 30 30 30 29 28 26 25 26 27 27 29 31 32 32 32 32 32 31 29 27 25 25 27 29 31 32 32 33 35 35 35 35 36 36 36 34 33 33 33 31 27 25 24 23 22 22
22 23 25 25 24 25 24 21 21 23 25 27 27 25 25 26 27 28 28 28 28 27 26 26 27 28 29 30 31 31 30 32 33 34 34 32 30 27 26 26 29 31 33 33 34 35 36 36 37 38 38 38 37 35 35 35 32 28 26 25 24 24 23
19 20 21 20 21 24 24 22 22 24 24 26 26 25 25 25 25 25 26 27 28 27 26 27 28 29 30 31 30 28 28 32 34 36 37 36 33 30 28 27 28 30 33 34 34 35 37 37 38 39 40 39 38 37 37 36 33 29 28 27 26 25 25
17 19 19 17 19 23 24 23 24 26 26 25 25 26 26 26 25 26 27 27 27 27 27 28 28 28 30 30 28 26 28 31 34 36 38 39 36 34 31 29 29 30 32 34 35 35 37 39 39 40 40 40 39 39 38 37 33 30 29 29 28 27 26
20 20 20 18 18 20 22 21 22 25 28 27 25 26 26 27 28 28 28 28 26 26 27 28 28 27 28 28 28 28 29 31 34 37 39 40 39 37 34 32 31 31 32 34 35 35 38 40 40 41 41 41 40 40 39 37 33 32 31 30 29 28 28
28 24 21 18 17 19 23 24 22 23 27 28 27 26 25 26 27 27 28 29 29 28 29 29 28 27 27 28 29 29 29 31 34 37 39 40 40 40 38 36 34 32 32 33 35 37 38 40 41 42 42 42 42 41 40 37 34 33 33 32 30 30 31
35 30 26 22 20 19 24 29 28 25 26 27 27 27 25 24 25 25 26 29 30 30 30 31 30 28 28 28 29 30 30 32 35 37 38 40 41 42 41 39 37 35 34 34 36 38 38 39 41 42 42 42 43 42 41 38 36 35 34 33 31 31 33
35 35 32 28 24 21 23 29 32 29 27 27 27 26 25 24 25 26 27 29 30 30 31 33 32 30 29 30 30 31 31 33 34 35 37 39 41 43 44 43 40 38 36 36 37 38 39 40 41 42 43 43 43 42 41 39 37 36 34 33 33 34 35
31 33 35 33 29 23 21 25 30 30 29 30 28 27 25 23 23 25 28 29 30 30 31 33 33 31 31 32 31 29 29 30 32 33 34 37 40 43 44 45 43 41 39 39 39 40 41 41 41 42 43 44 43 43 42 41 38 36 35 34 35 36 37
24 26 31 34 32 26 21 21 25 28 29 31 29 26 25 26 26 27 28 28 29 29 30 33 36 35 33 30 27 24 24 25 25 26 28 31 35 39 41 44 45 43 41 41 41 41 41 41 41 42 43 44 43 42 42 41 39 36 35 36 37 38 39
22 20 23 29 30 26 22 22 23 23 25 27 26 24 24 25 28 31 31 29 28 29 31 35 38 36 30 25 22 21 22 22 21 22 25 27 29 33 37 40 43 45 44 43 42 43 43 43 43 43 44 44 43 42 42 41 40 38 37 38 39 40 41
23 21 20 23 25 24 25 25 24 22 21 22 23 24 24 25 27 30 32 32 31 31 33 36 36 31 26 22 21 21 23 23 22 22 25 26 27 29 33 36 40 44 46 46 45 44 44 44 45 45 44 44 43 43 42 42 41 40 40 41 42 42 42
22 22 21 21 23 25 27 28 26 24 22 21 23 25 26 26 26 26 29 32 33 33 32 32 30 27 25 24 23 23 23 24 25 25 24 24 24 26 28 33 37 41 46 48 48 47 46 46 46 46 46 45 45 44 43 43 43 43 43 44 43 44 44
22 22 23 23 24 27 28 29 28 26 24 23 24 25 26 26 26 25 26 28 29 29 29 29 28 27 26 25 25 26 26 26 28 28 26 24 25 24 23 26 31 36 42 47 49 49 49 49 48 48 48 47 47 47 46 45 46 46 47 46 45 45 43
23 23 24 25 27 29 30 30 30 29 28 27 27 27 27 27 27 28 27 27 27 28 31 31 31 30 30 30 30 30 29 29 29 30 29 28 27 25 22 22 26 30 35 42 48 51 52 51 50 49 50 50 50 49 49 48 49 49 49 47 47 46 42
25 25 25 25 27 29 29 30 30 31 30 30 30 31 30 29 29 30 30 29 29 32 35 36 36 36 36 36 35 34 33 33 32 32 32 32 31 30 27 26 28 30 32 36 42 48 52 54 54 52 52 52 52 51 50 51 51 51 50 49 47 45 41
25 25 25 24 23 23 23 24 25 26 27 28 29 30 30 30 30 31 31 31 31 33 35 36 37 38 38 37 38 37 37 36 37 37 37 37 38 37 33 31 33 34 34 34 36 40 45 50 55 56 56 54 53 53 53 52 51 51 50 49 47 44 40
23 23 24 23 22 21 20 20 20 20 21 22 23 25 26 26 28 30 31 32 32 33 33 34 35 36 36 37 38 38 39 39 40 41 41 42 42 42 40 38 38 38 38 38 38 39 40 43 49 55 59 58 56 55 55 54 52 51 50 48 46 43 40
21 21 21 21 21 20 20 20 20 19 19 20 20 21 22 23 25 26 28 30 32 33 34 34 34 34 34 35 36 37 38 39 40 41 43 44 45 45 45 45 44 43 42 42 42 43 44 44 46 51 56 60 61 58 57 56 54 52 50 48 45 41 40
20 19 19 19 19 19 19 19 20 21 21 22 22 23 23 24 24 25 27 28 30 31 32 33 34 35 35 36 37 39 40 41 42 44 45 46 47 48 48 48 48 49 48 47 47 47 48 48 48 49 54 60 61 59 57 55 53 51 50 47 44 41 40
19 18 18 18 17 17 18 18 18 20 21 22 23 24 25 26 27 28 28 28 29 30 31 32 33 35 36 37 38 40 42 44 46 48 49 50 51 51 50 50 51 52 52 52 52 53 52 50 50 51 55 58 55 51 51 49 48 47 46 44 42 41 40
17 17 16 16 15 15 15 16 17 18 19 20 22 23 24 25 27 28 29 30 31 31 32 33 34 35 36 37 39 40 42 44 46 48 49 51 52 53 54 54 55 56 56 56 56 56 56 56 54 54 56 56 49 44 43 42 41 42 44 43 41 40 40
14 14 14 14 15 15 15 15 16 17 18 20 21 22 23 24 25 26 28 29 31 33 35 36 38 39 40 40 41 43 44 45 46 47 48 49 51 53 56 58 59 60 60 60 60 60 60 61 61 59 57 54 50 48 45 42 40 42 43 42 41 41 40
10 11 12 13 15 16 16 16 16 17 18 19 20 21 22 23 24 26 27 29 31 33 35 36 38 39 41 42 44 45 46 47 48 49 49 50 51 54 56 58 60 62 62 63 63 63 63 63 64 64 60 52 45 47 51 48 44 43 43 39 37 39 40
Wind_Direction
258 257 251 246 239 232 228 226 225 225 221 217 216 214 213 215 217 219 221 222 223 224 225 226 228 230 232 233 233 232 232 231 232 234 237 240 242 245 249 251 249 240 225 218 218 218 217 216 217 214 208 201 197 198 199 197 196 195 195 195 195 196 200
261 260 256 251 246 240 234 229 228 227 225 223 221 219 218 217 220 224 226 227 227 227 227 228 230 231 232 233 234 234 233 233 232 233 236 239 241 244 248 250 252 248 234 220 215 214 213 212 213 211 207 203 200 201 201 199 200 201 203 206 205 206 215
259 260 259 255 250 246 241 235 231 229 229 228 225 223 222 219 221 226 228 231 233 232 230 231 232 233 233 233 234 235 235 234 234 234 235 238 242 245 247 249 250 248 239 225 215 213 210 209 211 209 206 204 203 204 203 201 202 205 209 212 213 217 227
256 256 259 258 254 250 247 242 237 233 231 231 230 228 225 223 223 225 227 230 234 236 237 237 235 235 236 235 235 236 236 236 236 235 235 237 241 244 246 247 247 245 238 228 219 214 210 208 209 208 206 205 206 207 206 203 204 208 213 216 220 226 235
249 251 257 262 259 253 248 244 241 237 233 232 233 231 229 227 227 228 229 229 230 232 237 240 240 239 238 237 237 237 238 238 238 237 236 236 239 242 245 245 244 241 237 229 222 217 212 209 208 206 205 205 207 209 207 205 206 210 214 218 223 231 239
245 247 255 262 263 258 251 245 243 240 237 236 235 235 233 231 231 230 230 230 228 227 229 232 235 237 237 237 237 237 237 238 238 238 237 236 238 240 243 245 242 239 235 229 223 218 214 211 209 206 205 206 208 209 208 206 207 211 214 218 224 232 241
246 248 255 261 263 263 257 249 245 242 240 238 238 237 236 234 234 233 231 230 228 226 226 228 229 231 233 233 235 236 237 238 238 238 238 237 237 238 240 241 239 236 233 228 223 219 215 213 211 208 206 207 208 209 208 207 209 212 216 219 226 233 242
244 250 256 258 258 260 259 253 248 244 240 238 239 238 237 237 235 234 233 230 227 226 225 225 225 227 229 230 232 235 236 238 240 240 239 238 236 236 237 237 236 234 230 225 223 220 216 214 212 210 208 207 208 208 208 208 211 216 220 223 228 234 242
244 251 254 253 254 261 264 260 252 247 241 237 238 240 238 239 237 235 234 231 228 227 224 222 223 225 228 229 231 234 236 239 242 241 240 238 235 234 234 234 234 232 227 223 221 220 217 215 214 212 209 207 207 206 207 209 214 219 224 227 230 235 243
251 255 253 250 254 263 270 268 259 250 243 236 236 238 238 238 238 237 235 233 230 226 223 223 222 223 227 228 230 232 235 240 243 243 242 238 235 233 232 232 232 229 225 222 220 220 217 215 215 214 211 208 206 205 206 209 215 222 227 230 233 238 244
252 256 255 254 258 263 268 270 262 247 239 233 230 232 234 235 237 237 235 233 229 224 222 223 223 224 227 229 230 231 233 238 241 242 242 241 238 234 230 230 230 226 223 219 219 219 217 215 215 214 212 209 207 207 207 210 215 221 226 229 234 238 243
247 254 259 260 260 261 263 269 263 244 234 230 226 226 229 230 233 235 233 231 228 225 223 224 225 227 228 230 231 232 233 237 240 241 242 242 241 237 231 228 227 224 219 217 217 219 218 216 215 214 213 211 210 210 211 213 217 221 224 228 232 236 240
249 255 259 259 258 259 263 268 264 244 232 229 227 226 226 227 228 230 230 229 228 227 227 226 227 229 230 231 232 232 233 236 240 242 243 242 243 241 236 229 226 223 218 215 216 218 218 216 215 215 213 212 213 213 214 216 219 221 224 227 230 234 240
256 254 254 253 253 257 262 266 265 249 233 229 229 228 228 228 228 229 229 229 230 231 231 230 230 230 230 231 231 232 233 235 238 242 243 243 242 242 240 233 226 222 218 215 216 218 218 217 216 215 214 213 215 216 217 220 221 222 224 226 230 235 242
261 253 252 253 250 251 255 261 266 258 242 231 227 228 230 230 231 231 231 232 232 233 232 230 231 231 232 233 233 233 234 235 236 238 240 242 240 240 240 235 228 223 219 217 217 218 218 217 216 216 215 214 216 218 220 222 222 223 225 227 232 238 246
256 250 255 258 254 251 251 259 266 262 250 237 229 226 227 229 232 231 230 230 229 228 227 228 230 232 234 235 234 236 237 236 236 236 237 240 240 238 238 236 231 225 220 218 217 217 219 218 216 216 216 216 217 220 223 224 223 223 224 228 234 240 248
256 252 255 258 257 251 248 252 254 250 245 237 230 225 223 225 230 231 230 229 227 225 224 226 229 232 235 237 237 237 238 239 238 236 236 238 239 237 236 235 232 228 223 220 219 218 219 220 218 217 217 218 218 222 225 225 224 223 225 229 235 241 248
257 255 251 251 253 250 246 245 242 238 234 230 228 227 224 224 228 232 233 232 230 230 229 228 230 233 236 239 240 239 238 239 239 236 234 235 237 237 235 233 232 230 226 223 221 221 221 222 222 220 219 220 220 223 226 225 224 225 226 231 236 243 249
252 251 245 245 248 245 241 239 238 234 228 225 227 228 227 228 230 231 232 232 233 235 236 234 233 235 238 240 241 241 240 239 238 236 234 233 234 235 234 232 231 229 228 226 224 224 224 224 224 223 223 222 222 224 227 225 224 226 228 232 238 244 250
248 246 241 244 251 246 237 236 239 235 227 225 230 233 232 235 237 236 235 234 235 238 241 242 240 240 242 243 244 244 243 240 238 236 234 234 233 233 233 232 231 229 228 227 226 226 226 225 225 226 226 225 224 225 226 225 224 226 229 233 239 245 251
249 248 245 249 256 250 237 234 238 240 234 231 232 234 235 238 240 239 236 234 233 235 240 243 243 243 244 246 246 245 243 240 238 236 234 234 233 232 232 232 231 229 228 227 227 228 228 227 227 227 228 227 226 226 226 226 226 227 230 234 240 246 251
252 250 250 252 256 252 242 237 238 240 240 235 231 233 237 238 236 235 234 233 232 232 234 238 242 243 245 246 245 244 243 242 240 238 236 234 234 233 231 231 230 229 228 227 228 229 228 228 228 228 229 228 227 227 227 227 227 228 230 234 240 247 251
254 253 253 252 253 255 248 236 233 235 236 233 233 236 239 238 235 235 237 237 236 234 234 237 242 245 246 245 245 245 245 244 242 240 237 235 235 235 233 231 230 230 228 228 228 229 229 229 230 230 230 229 228 228 228 228 228 229 230 235 241 246 250
258 257 255 252 253 254 246 230 226 227 227 229 234 240 242 242 240 237 237 240 240 239 239 240 242 245 245 244 243 245 247 245 244 246 245 244 243 242 238 234 231 230 230 229 229 230 230 231 231 232 232 231 230 229 229 230 230 230 232 236 241 246 249
259 259 255 252 253 250 239 228 225 222 221 224 230 237 242 245 243 239 238 240 239 238 240 240 241 243 244 240 238 244 252 253 252 252 255 257 255 252 247 241 235 232 231 231 231 231 231 230 231 233 234 233 232 230 230 231 231 231 234 237 241 244 247
261 257 250 248 248 241 229 225 226 227 227 228 229 234 240 244 245 242 240 238 236 236 239 239 239 241 241 239 242 249 255 259 260 257 256 257 259 259 254 246 239 234 232 232 232 232 231 231 231 232 234 235 233 232 232 232 233 233 235 238 240 243 246
259 253 244 240 236 228 221 220 224 229 232 230 228 230 234 240 244 243 240 238 239 241 240 237 236 238 240 243 248 250 251 257 262 262 259 254 254 257 257 251 244 238 234 232 232 232 232 232 232 232 234 235 234 234 233 234 234 235 237 238 240 243 245
248 245 240 235 226 219 218 220 224 228 229 228 227 226 228 233 236 237 238 239 241 242 237 232 232 237 241 244 246 247 249 254 256 257 255 247 242 245 253 257 253 245 239 235 233 232 232 233 233 233 234 235 235 235 235 235 236 236 237 238 240 242 244
234 234 235 233 226 222 223 226 230 232 230 228 228 227 227 229 231 231 232 234 235 233 229 228 233 237 239 242 244 247 250 252 253 254 252 244 238 239 246 254 257 255 249 243 237 234 233 234 234 233 234 235 235 235 235 236 236 237 238 239 240 242 244
222 225 227 229 227 226 228 230 233 235 233 230 229 229 228 230 230 230 230 230 228 226 226 229 234 238 239 241 244 247 249 251 254 256 253 247 243 243 244 243 246 252 255 252 245 239 236 235 235 234 235 236 236 236 236 237 237 238 239 239 240 241 242
213 215 218 221 223 224 226 229 231 232 232 232 233 233 233 233 231 231 232 231 231 231 233 236 239 242 245 247 248 250 251 252 254 256 256 254 251 250 248 243 241 243 247 251 252 249 245 242 240 237 236 237 237 238 238 238 237 238 237 238 239 239 240
205 208 212 215 219 222 224 227 230 231 233 234 235 236 236 235 234 236 237 238 239 241 243 245 246 248 251 252 253 253 253 252 253 254 255 256 256 255 253 249 246 245 243 245 248 249 250 251 248 244 239 237 237 239 239 238 237 237 236 236 236 235 237
208 210 211 214 219 222 225 229 233 236 239 241 242 243 243 242 242 243 243 244 246 249 250 251 252 252 253 253 253 253 252 252 251 251 251 252 253 254 253 253 251 249 247 246 245 245 246 249 251 250 246 241 237 236 237 237 236 234 234 234 233 232 234
213 215 217 220 223 226 229 232 234 238 240 243 245 247 250 251 252 253 253 252 252 253 254 254 255 255 255 253 251 250 250 250 250 250 251 251 252 252 253 254 253 253 252 252 252 252 250 247 248 250 250 245 240 236 234 232 230 230 232 232 232 233 234
214 219 224 229 231 234 239 241 243 245 246 246 247 248 249 252 253 255 257 257 257 258 258 258 257 257 258 257 255 253 252 252 252 253 253 254 255 255 255 256 256 256 256 255 256 259 258 255 251 249 248 245 238 232 229 226 222 224 228 230 230 232 232
209 216 223 229 234 238 242 246 249 252 254 254 255 255 254 255 255 254 255 254 254 254 255 256 257 258 258 258 258 258 257 256 256 256 256 256 256 256 256 256 257 257 257 256 256 257 258 258 257 254 251 249 241 230 224 221 218 217 219 222 225 227 227
208 218 225 233 241 245 247 248 248 250 253 254 256 258 259 259 259 259 258 256 255 253 252 252 253 253 254 254 255 255 256 257 258 259 259 259 259 258 257 256 255 255 256 256 255 254 254 255 257 257 256 252 245 235 227 223 219 216 216 219 223 223 222
218 227 233 242 249 252 254 256 254 253 253 253 254 256 257 257 258 258 259 260 260 259 258 256 254 254 255 256 256 257 258 258 260 261 262 262 261 261 260 259 258 257 256 255 254 253 252 251 252 255 255 249 239 233 229 227 224 221 220 223 222 217 218
Height
3122 3124 3127 3129 3131 3133 3135 3137 3140 3142 3144 3146 3148 3149 3151 3153 3155 3156 3158 3160 3161 3163 3165 3166 3168 3169 3170 3172 3174 3176 3178 3180 3181 3182 3184 3186 3187 3189 3190 3191 3192 3193 3194 3195 3197 3198 3200 3201 3203 3204 3206 3207 3209 3210 3212 3213 3214 3215 3216 3217 3217 3218 3218
3119 3120 3122 3125 3127 3129 3131 3134 3137 3139 3141 3144 3145 3147 3149 3150 3152 3153 3155 3157 3159 3161 3162 3163 3165 3166 3168 3170 3172 3174 3175 3177 3179 3180 3182 3183 3185 3187 3188 3189 3191 3192 3193 3194 3195 3196 3197 3199 3200 3202 3204 3206 3207 3209 3210 3212 3213 3214 3215 3216 3216 3216 3217
3116 3117 3118 3121 3123 3125 3128 3131 3134 3136 3138 3140 3142 3144 3146 3148 3150 3151 3153 3155 3157 3159 3160 3161 3162 3163 3165 3167 3169 3170 3172 3174 3176 3178 3179 3181 3183 3185 3186 3188 3189 3190 3191 3192 3193 3194 3195 3197 3198 3200 3202 3204 3205 3207 3208 3210 3212 3213 3213 3214 3215 3215 3215
3114 3114 3116 3117 3119 3122 3125 3128 3130 3132 3135 3137 3139 3142 3143 3146 3148 3149 3151 3153 3155 3156 3158 3159 3160 3161 3163 3164 3166 3167 3169 3171 3173 3175 3177 3179 3181 3183 3184 3185 3187 3188 3189 3190 3191 3192 3193 3194 3196 3198 3200 3202 3203 3205 3207 3208 3210 3211 3212 3213 3213 3213 3214
3112 3112 3114 3114 3115 3118 3120 3123 3126 3129 3132 3134 3136 3139 3141 3143 3145 3147 3149 3151 3153 3154 3156 3157 3158 3159 3161 3162 3163 3165 3166 3169 3171 3173 3175 3177 3179 3180 3181 3183 3185 3186 3188 3189 3190 3190 3192 3192 3194 3196 3198 3200 3202 3203 3205 3207 3208 3209 3210 3211 3211 3211 3212
3110 3111 3111 3111 3112 3113 3116 3119 3122 3125 3128 3131 3133 3136 3138 3140 3142 3143 3146 3148 3150 3152 3154 3155 3156 3157 3158 3159 3161 3162 3164 3166 3167 3169 3172 3174 3175 3177 3178 3180 3182 3184 3185 3186 3187 3189 3190 3191 3192 3194 3196 3198 3200 3201 3203 3205 3206 3207 3208 3209 3209 3210 3210
3108 3109 3109 3109 3109 3110 3112 3115 3118 3122 3125 3128 3130 3133 3135 3137 3138 3141 3143 3145 3147 3149 3151 3152 3153 3155 3156 3157 3159 3160 3161 3163 3164 3166 3168 3170 3172 3173 3175 3177 3179 3181 3183 3184 3185 3186 3188 3190 3191 3193 3194 3196 3197 3199 3201 3202 3204 3205 3206 3207 3207 3208 3209
3105 3106 3106 3107 3107 3107 3109 3112 3115 3118 3121 3124 3126 3128 3131 3133 3135 3137 3139 3142 3144 3146 3148 3149 3151 3153 3154 3156 3157 3158 3159 3160 3162 3163 3165 3166 3168 3170 3172 3174 3176 3178 3180 3181 3182 3184 3186 3188 3190 3191 3192 3193 3195 3197 3199 3200 3201 3202 3203 3204 3205 3206 3207
3102 3103 3104 3104 3105 3105 3106 3108 3112 3115 3118 3121 3122 3125 3127 3129 3132 3134 3136 3139 3141 3143 3145 3147 3149 3150 3152 3154 3155 3156 3158 3158 3159 3160 3161 3163 3164 3166 3169 3171 3173 3176 3177 3179 3180 3182 3184 3186 3188 3190 3191 3192 3193 3195 3196 3198 3199 3199 3201 3202 3203 3204 3204
3099 3099 3100 3101 3102 3103 3103 3105 3109 3112 3114 3117 3119 3121 3123 3125 3128 3130 3132 3135 3137 3140 3142 3144 3146 3148 3149 3151 3153 3154 3156 3156 3157 3158 3158 3160 3161 3163 3166 3168 3171 3173 3174 3176 3178 3179 3182 3184 3186 3188 3189 3190 3191 3192 3194 3195 3196 3197 3198 3200 3200 3201 3202
3096 3096 3097 3098 3099 3100 3100 3102 3105 3108 3110 3113 3115 3117 3119 3122 3125 3127 3129 3131 3134 3137 3139 3141 3143 3145 3147 3149 3150 3152 3153 3153 3154 3155 3156 3157 3158 3160 3163 3165 3168 3170 3171 3173 3175 3177 3179 3181 3183 3185 3187 3188 3189 3190 3191 3192 3193 3194 3196 3197 3198 3198 3199
3093 3094 3095 3096 3096 3097 3098 3098 3102 3105 3107 3109 3112 3114 3116 3118 3121 3123 3126 3128 3131 3134 3136 3138 3140 3142 3144 3146 3147 3149 3150 3151 3151 3152 3153 3155 3156 3158 3160 3162 3164 3167 3168 3170 3172 3174 3176 3178 3180 3182 3184 3186 3187 3188 3188 3189 3190 3191 3193 3194 3195 3196 3196
3090 3090 3092 3093 3093 3094 3095 3096 3098 3101 3103 3106 3109 3111 3113 3116 3118 3120 3123 3125 3127 3130 3133 3135 3137 3139 3141 3143 3144 3146 3147 3148 3149 3150 3151 3153 3154 3156 3157 3159 3161 3163 3165 3167 3169 3171 3173 3175 3178 3180 3182 3184 3184 3185 3186 3186 3187 3188 3190 3191 3192 3193 3194
3087 3088 3089 3090 3091 3092 3093 3094 3095 3098 3100 3102 3105 3108 3110 3113 3115 3117 3120 3122 3124 3127 3129 3132 3134 3135 3137 3139 3141 3142 3144 3146 3147 3148 3149 3151 3152 3153 3155 3156 3158 3160 3162 3164 3166 3168 3170 3172 3175 3177 3179 3180 3181 3182 3183 3183 3184 3186 3187 3188 3189 3190 3191
3084 3085 3086 3088 3089 3090 3091 3092 3093 3095 3097 3099 3101 3104 3107 3110 3112 3114 3116 3119 3121 3123 3126 3128 3130 3132 3134 3135 3137 3139 3141 3143 3144 3145 3146 3148 3149 3150 3152 3153 3155 3157 3159 3161 3163 3165 3167 3169 3171 3173 3175 3176 3177 3178 3179 3179 3181 3183 3185 3186 3187 3187 3187
3081 3083 3084 3085 3086 3087 3088 3090 3091 3093 3094 3096 3099 3100 3103 3106 3108 3111 3113 3115 3117 3119 3122 3124 3126 3128 3130 3131 3133 3136 3138 3140 3141 3142 3143 3144 3145 3147 3149 3150 3152 3154 3156 3158 3160 3162 3164 3165 3167 3168 3170 3171 3173 3174 3175 3176 3178 3180 3182 3183 3183 3184 3184
3079 3080 3081 3082 3083 3083 3085 3087 3089 3090 3091 3093 3096 3098 3100 3103 3105 3107 3110 3112 3113 3116 3118 3120 3122 3124 3126 3127 3130 3132 3134 3135 3137 3138 3139 3140 3142 3144 3145 3147 3148 3150 3152 3154 3156 3158 3159 3161 3162 3164 3165 3167 3169 3170 3171 3173 3175 3178 3179 3180 3180 3180 3180
3077 3078 3078 3079 3080 3081 3083 3084 3086 3088 3089 3091 3093 3095 3097 3100 3102 3104 3106 3108 3110 3112 3114 3116 3118 3120 3122 3124 3126 3128 3130 3131 3132 3134 3136 3137 3138 3140 3142 3144 3145 3146 3148 3150 3152 3154 3155 3156 3157 3159 3161 3163 3164 3166 3167 3170 3173 3175 3176 3176 3177 3177 3177
3074 3075 3076 3077 3077 3079 3080 3081 3083 3085 3087 3088 3090 3092 3095 3097 3099 3101 3103 3106 3108 3110 3111 3113 3115 3117 3118 3120 3122 3124 3126 3127 3128 3130 3131 3133 3134 3136 3138 3139 3141 3142 3144 3146 3148 3149 3150 3151 3153 3155 3157 3158 3160 3162 3164 3166 3169 3171 3172 3172 3173 3173 3173
3071 3072 3073 3074 3074 3076 3077 3078 3080 3081 3084 3086 3087 3089 3091 3093 3095 3098 3101 3103 3105 3107 3108 3110 3112 3113 3115 3116 3118 3120 3122 3123 3124 3125 3127 3129 3131 3132 3133 3135 3136 3138 3140 3142 3144 3144 3145 3147 3149 3151 3152 3154 3156 3158 3160 3163 3165 3167 3168 3168 3169 3169 3169
3067 3069 3070 3071 3072 3073 3074 3075 3077 3078 3081 3083 3084 3086 3088 3089 3091 3094 3096 3099 3101 3103 3105 3106 3108 3109 3111 3112 3114 3115 3117 3118 3119 3121 3123 3125 3126 3127 3129 3131 3132 3134 3136 3137 3139 3140 3141 3143 3145 3147 3148 3150 3152 3154 3156 3159 3161 3162 3163 3165 3165 3165 3165
3063 3065 3066 3068 3069 3070 3071 3072 3074 3076 3078 3079 3081 3082 3084 3086 3088 3090 3092 3094 3097 3099 3101 3102 3103 3105 3107 3108 3110 3111 3113 3114 3116 3117 3119 3120 3121 3122 3124 3126 3128 3130 3132 3133 3134 3136 3137 3139 3140 3142 3144 3146 3148 3150 3152 3155 3156 3158 3159 3161 3161 3161 3160
3060 3061 3063 3064 3065 3067 3069 3069 3070 3072 3074 3076 3077 3079 3081 3083 3085 3086 3088 3090 3092 3095 3097 3098 3099 3101 3103 3104 3106 3107 3109 3111 3112 3113 3115 3116 3117 3118 3120 3122 3124 3126 3127 3129 3130 3131 3132 3134 3136 3138 3140 3142 3144 3146 3148 3150 3152 3154 3155 3157 3157 3157 3156
3056 3058 3059 3061 3062 3064 3066 3066 3067 3069 3070 3073 3075 3077 3079 3080 3081 3082 3084 3086 3088 3091 3093 3094 3095 3097 3099 3101 3103 3105 3106 3108 3109 3111 3112 3113 3114 3115 3116 3118 3120 3122 3123 3124 3125 3126 3128 3130 3132 3134 3135 3137 3140 3142 3144 3146 3148 3150 3151 3152 3152 3152 3152
3053 3055 3056 3058 3059 3061 3063 3064 3065 3066 3067 3070 3072 3074 3075 3077 3078 3079 3080 3082 3084 3087 3089 3090 3092 3094 3097 3099 3101 3103 3104 3105 3106 3108 3109 3110 3111 3112 3113 3114 3116 3118 3119 3121 3121 3123 3124 3126 3128 3129 3130 3133 3136 3138 3140 3141 3143 3145 3146 3147 3147 3147 3147
3050 3051 3053 3055 3056 3058 3060 3061 3062 3063 3065 3067 3069 3071 3072 3073 3075 3076 3077 3079 3081 3082 3084 3087 3090 3093 3096 3097 3098 3099 3101 3102 3103 3105 3106 3107 3108 3109 3110 3111 3112 3114 3115 3116 3117 3118 3120 3121 3122 3124 3126 3128 3131 3133 3135 3136 3138 3139 3141 3141 3141 3141 3141
3047 3048 3050 3052 3053 3055 3057 3058 3059 3061 3062 3064 3066 3068 3069 3070 3072 3073 3075 3076 3077 3079 3082 3084 3088 3091 3093 3094 3095 3096 3097 3099 3100 3102 3103 3104 3104 3105 3106 3107 3108 3109 3110 3111 3112 3113 3114 3116 3117 3119 3121 3123 3125 3127 3129 3131 3132 3134 3135 3135 3136 3136 3136
3045 3046 3048 3049 3050 3052 3053 3055 3056 3058 3060 3061 3063 3064 3066 3067 3069 3070 3071 3073 3075 3078 3080 3082 3084 3087 3089 3090 3091 3092 3094 3095 3096 3098 3099 3099 3100 3101 3102 3103 3104 3104 3105 3106 3106 3108 3109 3110 3112 3114 3115 3117 3118 3120 3123 3125 3126 3127 3128 3129 3130 3130 3132
3043 3044 3045 3046 3048 3049 3051 3052 3053 3055 3057 3058 3060 3061 3063 3064 3065 3067 3068 3070 3073 3075 3076 3078 3080 3082 3083 3085 3087 3088 3090 3091 3092 3093 3094 3095 3096 3097 3098 3098 3100 3100 3100 3100 3101 3102 3103 3104 3106 3108 3109 3110 3112 3114 3116 3118 3119 3120 3122 3123 3124 3126 3128
3039 3041 3043 3044 3045 3046 3048 3049 3050 3052 3053 3055 3056 3058 3059 3061 3062 3064 3065 3067 3068 3070 3071 3073 3075 3076 3078 3080 3081 3083 3085 3086 3087 3088 3090 3091 3092 3092 3093 3093 3094 3095 3095 3095 3096 3097 3098 3098 3099 3101 3102 3104 3105 3108 3110 3111 3113 3114 3116 3118 3119 3121 3124
3036 3038 3040 3041 3042 3044 3045 3046 3047 3049 3050 3052 3053 3055 3056 3058 3059 3060 3062 3063 3064 3066 3067 3069 3070 3072 3073 3075 3077 3078 3079 3081 3082 3083 3084 3085 3086 3087 3088 3088 3088 3089 3089 3089 3090 3091 3092 3093 3094 3094 3095 3097 3100 3102 3103 3105 3107 3109 3111 3112 3115 3117 3119
3033 3035 3037 3038 3040 3041 3042 3043 3045 3046 3047 3049 3050 3052 3053 3055 3056 3057 3059 3060 3061 3063 3064 3065 3066 3068 3069 3071 3072 3074 3074 3075 3076 3077 3078 3079 3080 3081 3082 3083 3083 3083 3083 3083 3083 3084 3085 3086 3087 3087 3088 3090 3092 3094 3096 3099 3101 3103 3105 3107 3110 3112 3114
3031 3032 3034 3036 3038 3039 3040 3041 3042 3043 3044 3046 3047 3049 3051 3052 3053 3054 3056 3057 3058 3060 3061 3062 3063 3064 3066 3067 3068 3069 3069 3070 3071 3071 3072 3072 3073 3074 3075 3075 3076 3077 3077 3077 3077 3077 3078 3078 3079 3079 3080 3081 3083 3086 3088 3091 3093 3096 3099 3102 3105 3107 3109
3028 3030 3031 3033 3035 3036 3038 3039 3040 3041 3042 3043 3045 3046 3047 3049 3050 3051 3052 3054 3055 3056 3057 3059 3059 3061 3062 3062 3063 3064 3064 3065 3065 3065 3065 3066 3066 3066 3066 3067 3068 3069 3070 3071 3071 3072 3072 3072 3073 3074 3073 3073 3075 3078 3080 3081 3085 3090 3094 3097 3100 3103 3104
3025 3026 3028 3029 3031 3033 3034 3035 3037 3038 3039 3041 3042 3043 3044 3046 3047 3048 3049 3050 3051 3053 3054 3055 3055 3057 3057 3058 3058 3059 3059 3060 3060 3060 3060 3059 3059 3059 3059 3060 3060 3060 3062 3064 3065 3065 3066 3067 3068 3068 3066 3066 3068 3071 3072 3074 3079 3086 3090 3093 3095 3097 3099
3021 3023 3024 3026 3027 3028 3029 3031 3032 3034 3035 3036 3038 3039 3040 3042 3043 3044 3045 3046 3047 3049 3050 3050 3051 3052 3052 3052 3053 3053 3053 3054 3054 3054 3053 3053 3053 3053 3052 3052 3052 3052 3053 3055 3056 3056 3057 3058 3058 3059 3059 3059 3063 3066 3068 3071 3076 3080 3082 3084 3087 3091 3093
3018 3019 3020 3021 3023 3024 3026 3027 3028 3030 3031 3032 3033 3034 3036 3037 3038 3039 3040 3041 3042 3043 3044 3045 3046 3046 3047 3047 3047 3047 3047 3047 3047 3047 3047 3046 3046 3045 3044 3043 3043 3043 3044 3044 3045 3046 3046 3047 3048 3050 3051 3052 3055 3059 3062 3065 3069 3072 3073 3075 3078 3082 3085
3016 3016 3017 3018 3020 3021 3022 3023 3024 3026 3027 3028 3029 3030 3031 3032 3033 3033 3034 3035 3036 3037 3038 3038 3039 3039 3040 3040 3040 3041 3041 3040 3040 3040 3039 3039 3039 3037 3036 3036 3035 3035 3035 3034 3034 3034 3035 3036 3037 3038 3040 3043 3046 3050 3053 3056 3059 3063 3066 3068 3071 3074 3078